Theta_e
289 287 286 287 287 287 288 288 288 288 288 289 290 291 293 293 290 291 293 296 298 304 321 326 326 326 325 326 326 324 323 323 322 322 322 324 325 325 326 327 325 326 328
288 286 286 286 286 287 287 288 287 287 288 288 290 290 291 289 288 288 290 294 296 299 312 322 323 324 324 323 323 323 323 322 323 323 322 322 323 324 326 325 323 325 326
286 285 285 286 286 286 286 287 286 287 287 287 288 289 289 287 286 286 287 291 295 296 302 306 315 322 322 322 322 323 323 323 323 323 322 322 322 323 323 324 324 325 324
285 284 285 285 285 285 286 285 285 286 286 286 287 288 287 286 285 285 285 288 291 293 294 295 296 299 302 309 315 317 319 323 323 323 322 320 321 322 323 323 323 323 323
284 284 284 284 284 285 285 284 285 285 284 285 285 285 285 286 284 284 284 285 287 290 290 292 292 292 292 294 297 301 308 311 315 321 321 318 317 317 319 323 322 322 323
283 283 283 283 284 284 284 284 284 285 284 283 284 283 282 283 283 283 283 283 284 285 288 289 291 288 288 289 290 292 296 301 304 307 314 309 315 319 320 322 322 318 309
282 282 282 282 283 283 284 283 283 284 283 282 283 282 282 281 282 283 282 282 282 283 284 285 288 286 285 286 287 289 291 292 295 298 299 304 309 311 312 315 317 318 318
281 281 281 281 283 283 283 282 282 283 282 282 282 282 281 280 281 282 282 282 282 282 282 283 284 284 284 285 285 287 288 290 291 292 293 295 298 301 302 303 307 312 316
280 280 281 281 282 282 282 282 282 282 283 281 282 281 280 279 280 281 282 281 281 281 282 282 283 283 284 285 286 286 288 288 288 290 291 292 295 298 300 301 305 309 302
279 280 280 280 281 281 281 281 281 281 282 281 281 280 279 279 279 281 281 281 281 281 282 282 283 284 285 286 286 287 287 287 288 289 291 293 294 295 297 299 301 304 305
279 279 280 280 280 281 280 280 280 281 281 281 281 279 278 278 278 280 281 280 280 280 281 282 283 284 283 285 285 284 284 285 286 287 288 289 290 294 296 297 299 300 304
279 278 279 279 280 280 279 279 280 280 280 280 280 278 277 277 278 279 279 279 279 279 279 281 282 282 281 281 282 282 282 282 282 284 285 286 287 288 290 293 296 299 301
278 278 279 279 279 280 279 279 279 279 279 280 278 277 277 277 278 278 277 278 278 277 278 279 279 280 280 279 280 280 280 280 280 281 282 283 283 285 287 289 293 296 299
277 277 278 278 278 279 279 279 278 278 279 279 277 276 277 277 277 278 277 276 276 275 275 276 276 277 277 278 278 278 279 279 279 279 280 280 281 283 284 286 289 291 293
277 277 278 278 278 279 278 278 278 278 279 279 277 276 277 277 277 277 277 276 276 274 274 274 274 274 275 276 276 277 278 278 278 278 279 279 280 281 282 284 286 289 291
276 276 277 277 277 278 278 278 278 277 278 278 277 276 276 276 276 276 276 274 274 273 272 272 272 272 273 273 274 275 275 276 277 277 278 278 279 279 281 282 284 287 289
275 276 275 276 276 277 277 277 276 277 277 276 276 275 275 275 275 275 274 273 272 271 270 270 270 270 270 271 272 273 273 274 275 276 276 277 278 279 279 281 283 285 288
275 275 275 275 275 275 276 276 277 277 275 275 274 274 273 273 273 273 272 272 270 270 269 269 269 269 269 269 270 270 271 272 273 274 275 276 277 278 279 280 281 283 285
274 274 274 274 274 275 275 275 276 276 275 274 273 272 272 272 271 271 270 269 267 268 267 268 268 268 268 268 269 269 270 271 272 273 274 275 276 277 278 279 280 282 283
273 273 273 273 273 273 274 274 275 274 274 273 272 271 270 270 269 269 269 268 268 267 267 267 267 267 268 268 268 269 269 270 271 272 273 274 275 277 278 279 280 281 283
272 272 272 272 272 272 272 272 273 273 272 272 271 270 269 269 268 268 267 267 267 267 267 267 268 268 268 267 268 268 269 269 270 271 272 273 274 276 277 278 279 281 282
271 271 271 271 271 271 271 272 271 272 271 271 270 269 269 268 268 267 267 267 267 267 267 267 267 267 268 268 269 268 269 269 270 271 272 273 274 275 277 278 280 282 282
271 270 271 271 270 270 270 270 270 270 270 269 269 268 268 267 267 267 267 267 267 267 267 267 267 267 268 269 269 269 269 270 271 272 273 274 275 276 277 279 281 282 283
270 270 270 270 270 269 269 269 269 269 269 268 268 267 267 267 266 266 266 266 267 267 267 267 267 267 268 269 269 270 270 271 272 273 274 275 275 276 277 279 280 281 282
269 269 269 269 269 269 268 268 268 268 268 267 267 266 266 266 266 266 266 266 266 266 267 267 267 268 268 269 269 270 271 272 273 273 274 275 276 277 277 278 279 280 281
269 269 269 269 268 268 268 268 268 267 267 267 266 266 265 265 265 265 265 265 265 266 266 266 267 267 268 269 269 270 271 272 273 273 274 274 275 276 277 277 278 279 280
Wind_Speed
23 30 33 30 29 29 27 30 31 33 32 32 34 33 31 29 35 34 33 29 32 31 28 29 30 31 28 29 29 30 28 21 6 8 18 25 25 23 26 31 26 32 38
21 28 29 28 28 27 26 27 30 30 30 31 31 30 24 29 34 36 33 30 33 32 19 22 22 26 26 26 27 25 24 23 16 10 21 24 25 25 29 30 29 34 38
23 27 28 26 25 27 28 25 28 28 29 28 29 28 24 28 35 38 36 30 31 29 27 17 9 18 18 18 19 19 22 22 24 18 15 23 27 23 26 27 28 32 33
25 27 25 25 26 26 25 27 26 26 27 28 26 26 23 26 30 37 36 32 26 30 29 26 27 18 12 11 13 13 13 17 20 19 15 14 17 22 23 19 19 26 29
23 23 22 23 24 24 24 26 25 24 26 26 26 26 25 25 31 36 35 29 27 26 28 19 25 22 23 17 7 6 8 6 6 8 9 7 9 7 14 17 20 22 28
20 22 22 23 24 23 24 25 25 25 24 24 23 25 26 25 31 33 33 30 28 25 21 24 17 22 20 19 15 13 8 4 3 1 1 2 7 10 15 17 18 11 2
20 21 22 23 23 23 23 24 26 25 25 24 22 23 21 23 30 31 31 28 27 27 24 22 19 21 26 22 16 11 12 8 3 2 3 3 3 2 3 11 17 15 12
19 20 22 24 23 24 23 24 24 25 24 24 23 24 23 24 27 30 29 26 24 23 22 22 19 18 25 23 19 16 14 12 7 3 5 11 12 16 11 11 11 15 20
19 20 22 24 24 24 24 24 24 24 22 24 23 25 24 26 26 29 28 23 23 24 23 24 20 22 20 24 24 20 17 12 13 10 8 8 9 12 14 15 16 11 3
20 21 22 22 24 23 25 24 24 24 21 23 21 23 25 25 26 29 30 23 22 23 21 21 23 23 28 21 18 20 15 14 20 19 13 10 9 9 8 11 14 11 6
21 21 22 21 23 22 24 23 24 23 22 22 18 21 25 26 27 26 26 24 24 22 22 26 28 25 25 22 17 16 15 16 15 16 15 14 13 11 8 8 8 11 12
21 21 20 22 21 22 24 22 22 22 21 20 17 21 23 26 28 30 31 28 25 23 21 19 21 20 18 15 17 18 15 17 17 14 12 11 13 14 18 16 16 14 16
18 22 21 23 22 22 23 20 19 22 20 19 18 20 22 23 24 25 27 23 22 22 21 19 19 19 18 21 19 19 17 20 18 16 15 13 18 20 20 19 17 14 13
19 23 21 23 23 22 21 22 21 22 19 18 18 21 22 21 23 25 25 27 26 25 20 18 18 15 17 21 21 21 19 17 15 13 16 18 20 21 20 16 17 18 14
20 21 22 24 24 22 21 22 19 19 19 20 20 23 22 22 27 27 27 25 25 22 17 19 19 20 19 18 18 21 19 20 19 18 17 18 18 19 19 18 13 15 8
19 20 22 24 23 21 24 23 15 16 15 16 19 21 22 20 23 25 25 21 22 19 17 17 18 18 18 19 19 20 19 20 20 20 20 16 15 17 18 20 17 14 11
19 21 22 23 22 21 26 23 18 19 15 15 18 20 21 21 22 24 25 21 22 25 20 18 17 18 18 19 19 19 19 21 20 19 17 16 16 16 17 16 16 15 13
18 20 22 21 22 21 23 23 16 18 18 19 20 20 23 22 21 22 25 26 31 31 24 21 21 22 21 20 20 20 22 22 22 21 18 17 17 15 15 14 15 15 14
19 21 21 20 20 21 22 22 20 16 16 17 21 23 25 24 20 21 22 26 21 22 25 25 26 26 25 25 25 23 21 21 22 21 21 21 20 18 17 15 17 16 16
19 20 19 19 21 22 21 21 19 19 17 18 19 23 25 26 27 26 25 26 26 25 24 24 26 26 26 28 29 29 29 28 27 26 26 25 25 21 20 20 18 16 14
19 21 19 19 20 21 20 19 20 18 17 19 20 20 22 21 22 22 23 23 24 25 26 27 28 29 29 28 27 27 26 27 28 28 28 28 27 24 24 22 21 19 16
16 18 18 18 19 20 19 19 20 19 18 18 22 23 23 24 23 23 24 23 22 22 22 23 25 27 28 29 30 31 29 28 29 29 28 28 28 26 25 23 22 20 16
16 17 16 16 17 19 19 19 20 19 18 19 20 23 23 23 23 23 24 25 24 24 23 23 25 27 28 28 26 27 27 30 31 30 30 29 28 26 25 22 19 16 9
15 16 15 15 16 17 19 19 18 19 17 19 21 22 22 21 22 23 24 25 25 25 24 24 25 27 28 28 29 29 28 26 26 27 25 24 25 23 21 17 13 6 4
14 15 14 14 15 15 17 18 18 17 18 19 20 21 21 21 22 23 23 24 25 25 26 25 26 27 28 28 29 30 29 27 25 24 23 21 21 19 17 14 10 5 6
11 13 13 13 13 14 15 17 17 17 16 20 21 20 20 20 21 22 23 24 25 25 26 26 26 26 27 29 30 29 29 28 26 24 21 20 19 18 16 14 10 9 8
Wind_Direction
357 355 353 348 344 338 330 338 333 332 330 330 331 328 328 337 336 330 324 330 333 323 273 228 224 216 208 203 200 196 202 207 224 248 246 237 231 229 232 231 231 242 243
355 351 351 347 341 339 331 325 334 331 335 337 340 339 343 347 342 335 329 336 346 325 338 228 209 197 193 195 191 195 204 218 218 231 239 236 230 231 229 224 230 233 235
353 353 351 343 340 339 336 333 332 335 338 343 343 343 352 353 349 344 341 338 358 346 21 20 126 179 174 185 194 201 209 214 218 222 226 232 224 225 225 234 234 234 239
354 352 346 342 340 340 337 338 336 336 339 346 347 352 358 357 355 350 347 346 354 9 10 30 44 69 83 112 154 169 183 202 209 224 215 208 208 223 228 226 231 239 237
355 349 342 339 337 338 340 341 338 341 344 341 349 353 352 355 1 353 351 348 358 13 15 14 46 44 50 56 77 102 133 150 167 211 194 169 180 181 199 213 222 230 237
355 346 340 339 337 339 341 341 341 342 344 347 350 355 355 352 356 356 355 352 1 2 14 13 32 24 27 25 33 53 68 104 112 12 329 172 203 213 230 217 215 205 237
351 345 343 340 339 341 341 343 343 342 347 347 348 353 352 353 356 357 357 358 357 1 3 15 16 10 16 4 13 36 48 45 74 203 280 299 325 80 277 254 221 215 223
350 345 345 342 339 341 344 344 343 343 348 346 347 352 349 354 358 357 358 357 356 356 7 8 15 355 10 3 355 22 29 28 17 330 267 272 268 271 281 270 277 272 248
349 346 342 344 340 341 344 341 342 345 343 347 346 349 351 351 357 359 2 0 349 348 355 6 6 12 358 13 8 2 16 6 341 335 325 306 297 281 277 273 270 219 237
346 343 343 348 344 339 340 340 341 345 342 345 347 352 351 349 357 357 360 356 353 351 348 354 17 358 16 355 5 10 353 350 337 339 337 330 325 306 292 265 263 244 213
345 345 349 354 350 340 347 345 344 343 342 343 350 355 351 354 350 358 2 4 356 348 354 355 2 9 17 7 14 14 347 338 336 342 344 340 342 336 324 306 283 260 251
350 345 354 358 354 345 354 346 346 346 344 346 360 355 355 354 356 358 360 3 360 356 348 354 9 15 15 6 9 8 354 1 2 349 350 352 347 334 330 322 306 289 261
347 352 357 358 356 357 358 348 347 349 348 349 1 354 351 354 356 360 0 359 358 359 360 0 3 10 7 18 11 11 20 15 2 359 349 338 329 331 329 328 318 310 293
344 353 358 358 352 1 1 360 356 352 350 351 1 354 349 354 358 2 3 2 3 2 7 18 21 12 12 10 5 5 16 10 2 348 338 336 332 332 330 336 324 326 320
347 355 358 357 355 358 360 357 356 357 358 356 3 356 350 353 358 359 3 6 7 4 10 14 10 8 7 7 4 4 1 359 360 357 349 344 332 331 328 331 327 324 282
352 357 357 353 356 358 355 353 4 3 360 1 1 359 356 354 356 360 3 8 11 15 26 18 10 6 2 359 358 353 354 352 353 353 345 336 328 325 322 322 321 319 301
4 2 357 355 356 350 350 352 348 358 8 8 5 2 3 357 357 360 2 5 15 20 22 12 7 4 357 356 355 352 345 347 347 341 335 331 327 322 321 316 316 316 307
7 4 359 356 359 354 352 354 355 357 1 7 9 6 4 3 2 4 4 14 14 16 10 4 359 356 354 352 349 346 343 345 342 338 334 332 327 321 320 316 313 306 304
9 3 359 1 2 357 0 0 359 0 5 9 7 8 4 3 6 12 14 20 7 2 1 358 358 355 351 350 348 345 344 341 341 337 337 336 330 327 320 309 301 295 292
9 5 2 3 4 3 4 359 355 6 10 13 14 9 3 3 10 8 12 12 7 1 358 357 358 358 356 354 352 350 345 345 344 342 338 334 329 323 315 308 303 297 289
8 5 5 8 7 5 6 358 356 3 11 10 9 6 5 11 9 10 8 8 6 1 359 358 358 1 358 355 352 348 344 341 342 339 334 331 326 320 316 309 300 296 286
9 6 5 8 8 8 9 10 7 8 9 7 2 1 2 7 9 7 7 6 4 3 1 359 359 2 2 359 358 351 343 339 339 338 332 329 327 322 321 314 312 305 292
9 7 10 11 11 10 11 12 9 8 8 7 0 358 359 1 3 5 2 2 3 3 4 5 5 4 4 2 4 0 348 345 343 342 337 333 331 329 328 321 314 302 274
12 12 11 11 12 11 9 8 9 10 7 5 3 1 0 358 359 359 360 359 0 2 5 4 6 4 3 3 6 4 359 355 351 349 346 342 338 339 340 339 335 320 207
11 12 12 13 14 12 7 6 7 6 5 3 359 358 359 0 359 358 358 358 359 0 2 4 4 2 3 5 7 5 2 0 0 358 355 354 351 349 353 359 4 43 117
10 11 9 9 9 8 5 3 5 5 359 2 2 359 358 1 3 3 4 3 1 1 2 3 3 3 4 7 8 6 6 6 5 5 5 7 5 7 10 13 21 57 87